Location: Unspecified
(29.9680°N, 0.0000°E)
Time: 18:12:34
(UTC+00:00)

Vanguard 1 Rocket - Pass Details

Date: 19 June 2019
Orbit: 651 x 4225 km, 34.3° (Epoch: 15 July)

Event Time Altitude Azimuth Distance (km) Brightness Sun altitude
Rises 21:10:47 0° 281° (W) 5,318 12.1 -22.7°
Reaches altitude 10° 21:15:06 10° 284° (WNW) 3,765 11.3 -23.3°
Maximum altitude 21:23:38 65° 6° (N) 1,067 7.8 -24.5°
Enters shadow 21:25:53 36° 74° (ENE) 1,331 8.0 -24.8°
